When you browse on this site, cookies collect data to enhance your experience and personalize the content and advertising you see.
Visit our Privacy Policy to learn more. By continuing to use the site, you agree to this use of cookies and data.
  • In Österreich
  • Länderverzeichnis
  • Für 7 Tage
  • Wassertemperatur
  • Satellitenkarten
  • Wetterkarte
  • News
  • Widgets
  • user-avatar
    Anmelden

    Stündliche Wetter Trumbull

    Heute, 21 Juli, Sonntag

    Zeit Temperatur Niederschläge Wind Luftdruck Luftfeuchtigkeit
    00:00 +28°C° 0.4 mm 3 m/S 751 mmHg 83%
    01:00 +28°C° 0 mm 2 m/S 751 mmHg 84%
    02:00 +27°C° 0 mm 2 m/S 750 mmHg 85%
    03:00 +27°C° 0 mm 2 m/S 750 mmHg 86%
    04:00 +27°C° 0 mm 1 m/S 750 mmHg 87%
    05:00 +28°C° 0 mm 2 m/S 750 mmHg 85%
    06:00 +28°C° 0 mm 3 m/S 751 mmHg 82%
    07:00 +29°C° 0 mm 3 m/S 751 mmHg 80%
    08:00 +31°C° 0 mm 3 m/S 751 mmHg 70%
    09:00 +34°C° 0 mm 3 m/S 750 mmHg 60%
    10:00 +35°C° 0 mm 4 m/S 750 mmHg 50%
    11:00 +36°C° 0 mm 4 m/S 750 mmHg 46%
    12:00 +37°C° 0 mm 4 m/S 750 mmHg 42%
    13:00 +38°C° 0 mm 4 m/S 750 mmHg 38%
    14:00 +40°C° 0 mm 5 m/S 750 mmHg 38%
    15:00 +40°C° 0 mm 5 m/S 750 mmHg 37%
    16:00 +40°C° 0 mm 5 m/S 750 mmHg 37%
    17:00 +36°C° 0.6 mm 4 m/S 750 mmHg 47%
    18:00 +34°C° 0.6 mm 4 m/S 750 mmHg 56%
    19:00 +30°C° 0.6 mm 4 m/S 751 mmHg 66%
    20:00 +29°C° 0.3 mm 3 m/S 751 mmHg 71%
    21:00 +28°C° 0.3 mm 3 m/S 751 mmHg 76%
    22:00 +27°C° 0.3 mm 3 m/S 751 mmHg 81%
    23:00 +26°C° 1.3 mm 2 m/S 752 mmHg 81%

    Morgen, 22 Juli, Montag

    Zeit Temperatur Niederschläge Wind Luftdruck Luftfeuchtigkeit
    00:00 +25°C° 1.3 mm 2 m/S 752 mmHg 80%
    01:00 +24°C° 1.3 mm 2 m/S 752 mmHg 80%
    02:00 +23°C° 0 mm 2 m/S 752 mmHg 77%
    03:00 +21°C° 0 mm 2 m/S 752 mmHg 75%
    04:00 +21°C° 0 mm 2 m/S 752 mmHg 72%
    05:00 +23°C° 0 mm 1 m/S 752 mmHg 70%
    06:00 +24°C° 0 mm 1 m/S 752 mmHg 69%
    07:00 +25°C° 0 mm 1 m/S 753 mmHg 67%
    08:00 +27°C° 0.2 mm 1 m/S 752 mmHg 61%
    09:00 +29°C° 0.2 mm 1 m/S 752 mmHg 55%
    10:00 +31°C° 0.2 mm 1 m/S 752 mmHg 49%
    11:00 +31°C° 0.2 mm 1 m/S 752 mmHg 48%
    12:00 +32°C° 0.2 mm 2 m/S 751 mmHg 46%
    13:00 +32°C° 0.2 mm 2 m/S 751 mmHg 45%
    14:00 +31°C° 0.1 mm 3 m/S 751 mmHg 48%
    15:00 +31°C° 0.1 mm 3 m/S 750 mmHg 51%
    16:00 +30°C° 0.1 mm 4 m/S 750 mmHg 55%
    17:00 +28°C° 0.6 mm 3 m/S 749 mmHg 64%
    18:00 +26°C° 0.6 mm 3 m/S 749 mmHg 74%
    19:00 +24°C° 0.6 mm 3 m/S 749 mmHg 84%
    20:00 +22°C° 1 mm 3 m/S 750 mmHg 86%
    21:00 +21°C° 1 mm 3 m/S 750 mmHg 87%
    22:00 +21°C° 1 mm 3 m/S 750 mmHg 89%
    23:00 +20°C° 0 mm 3 m/S 750 mmHg 89%

    übermorgen, 23 Juli, Dienstag

    Zeit Temperatur Niederschläge Wind Luftdruck Luftfeuchtigkeit
    00:00 +20°C° 0 mm 2 m/S 750 mmHg 90%
    01:00 +20°C° 0 mm 2 m/S 750 mmHg 91%
    02:00 +20°C° 0.4 mm 2 m/S 750 mmHg 91%
    03:00 +20°C° 0.4 mm 2 m/S 750 mmHg 91%
    04:00 +19°C° 0.4 mm 2 m/S 750 mmHg 91%
    05:00 +19°C° 2.8 mm 2 m/S 750 mmHg 92%
    06:00 +19°C° 2.8 mm 2 m/S 751 mmHg 93%
    07:00 +19°C° 2.8 mm 2 m/S 751 mmHg 93%
    08:00 +19°C° 1.3 mm 2 m/S 751 mmHg 93%
    09:00 +19°C° 1.3 mm 2 m/S 751 mmHg 92%
    10:00 +20°C° 1.3 mm 2 m/S 751 mmHg 92%
    11:00 +20°C° 0.8 mm 2 m/S 751 mmHg 89%
    12:00 +21°C° 0.8 mm 2 m/S 751 mmHg 86%
    13:00 +23°C° 0.8 mm 2 m/S 751 mmHg 83%
    14:00 +23°C° 0.3 mm 1 m/S 751 mmHg 82%
    15:00 +24°C° 0.3 mm 1 m/S 751 mmHg 81%
    16:00 +22°C° 0.3 mm 0 m/S 751 mmHg 80%
    17:00 +21°C° 0.4 mm 0 m/S 751 mmHg 80%
    18:00 +23°C° 0.4 mm 1 m/S 752 mmHg 80%
    19:00 +23°C° 0.4 mm 1 m/S 752 mmHg 80%
    20:00 +22°C° 0.2 mm 1 m/S 753 mmHg 81%
    21:00 +22°C° 0.2 mm 1 m/S 753 mmHg 82%
    22:00 +21°C° 0.2 mm 1 m/S 753 mmHg 83%
    23:00 +19°C° 0.1 mm 2 m/S 753 mmHg 83%

    24 Juli, Mittwoch

    Zeit Temperatur Niederschläge Wind Luftdruck Luftfeuchtigkeit
    00:00 +19°C° 0.1 mm 2 m/S 753 mmHg 82%
    01:00 +18°C° 0.1 mm 2 m/S 753 mmHg 82%
    02:00 +18°C° 0 mm 3 m/S 754 mmHg 82%
    03:00 +17°C° 0 mm 3 m/S 754 mmHg 82%
    04:00 +17°C° 0 mm 3 m/S 754 mmHg 82%
    05:00 +18°C° 0 mm 3 m/S 754 mmHg 79%
    06:00 +18°C° 0 mm 3 m/S 755 mmHg 77%
    07:00 +19°C° 0 mm 2 m/S 755 mmHg 74%
    08:00 +21°C° 0 mm 2 m/S 756 mmHg 63%
    09:00 +25°C° 0 mm 2 m/S 756 mmHg 51%
    10:00 +27°C° 0 mm 2 m/S 756 mmHg 40%
    11:00 +27°C° 0 mm 2 m/S 756 mmHg 38%
    12:00 +28°C° 0 mm 2 m/S 756 mmHg 37%
    13:00 +29°C° 0 mm 2 m/S 756 mmHg 35%
    14:00 +29°C° 0 mm 2 m/S 755 mmHg 36%
    15:00 +28°C° 0 mm 2 m/S 755 mmHg 37%
    16:00 +28°C° 0 mm 2 m/S 755 mmHg 37%
    17:00 +27°C° 0 mm 2 m/S 756 mmHg 44%
    18:00 +25°C° 0 mm 2 m/S 756 mmHg 50%
    19:00 +24°C° 0 mm 2 m/S 756 mmHg 56%
    20:00 +23°C° 0 mm 1 m/S 756 mmHg 57%
    21:00 +22°C° 0 mm 1 m/S 757 mmHg 58%
    22:00 +21°C° 0 mm 1 m/S 757 mmHg 58%
    23:00 +21°C° 0 mm 1 m/S 757 mmHg 60%

    25 Juli, Donnerstag

    Zeit Temperatur Niederschläge Wind Luftdruck Luftfeuchtigkeit
    00:00 +20°C° 0 mm 1 m/S 757 mmHg 61%
    01:00 +19°C° 0 mm 2 m/S 757 mmHg 62%
    02:00 +18°C° 0 mm 2 m/S 757 mmHg 64%
    03:00 +18°C° 0 mm 2 m/S 758 mmHg 65%
    04:00 +18°C° 0 mm 2 m/S 758 mmHg 67%
    05:00 +19°C° 0 mm 2 m/S 758 mmHg 65%
    06:00 +20°C° 0 mm 2 m/S 759 mmHg 63%
    07:00 +21°C° 0 mm 2 m/S 759 mmHg 60%
    08:00 +24°C° 0 mm 1 m/S 759 mmHg 53%
    09:00 +26°C° 0 mm 1 m/S 759 mmHg 47%
    10:00 +28°C° 0 mm 1 m/S 759 mmHg 40%
    11:00 +29°C° 0 mm 1 m/S 759 mmHg 37%
    12:00 +29°C° 0 mm 1 m/S 759 mmHg 35%
    13:00 +30°C° 0 mm 1 m/S 759 mmHg 33%
    14:00 +30°C° 0 mm 1 m/S 759 mmHg 34%
    15:00 +30°C° 0 mm 1 m/S 759 mmHg 35%
    16:00 +30°C° 0 mm 2 m/S 759 mmHg 35%
    17:00 +28°C° 0 mm 2 m/S 759 mmHg 42%
    18:00 +27°C° 0 mm 2 m/S 759 mmHg 49%
    19:00 +25°C° 0 mm 2 m/S 759 mmHg 56%
    20:00 +24°C° 0 mm 2 m/S 760 mmHg 58%
    21:00 +24°C° 0 mm 2 m/S 760 mmHg 60%
    22:00 +23°C° 0 mm 2 m/S 760 mmHg 62%
    23:00 +23°C° 0 mm 2 m/S 760 mmHg 65%

    26 Juli, Freitag

    Zeit Temperatur Niederschläge Wind Luftdruck Luftfeuchtigkeit
    00:00 +22°C° 0 mm 1 m/S 760 mmHg 68%
    01:00 +22°C° 0 mm 1 m/S 760 mmHg 71%
    02:00 +22°C° 0 mm 1 m/S 760 mmHg 72%
    03:00 +21°C° 0 mm 1 m/S 760 mmHg 73%
    04:00 +21°C° 0 mm 1 m/S 760 mmHg 73%
    05:00 +22°C° 0 mm 1 m/S 761 mmHg 70%
    06:00 +23°C° 0 mm 1 m/S 761 mmHg 67%
    07:00 +24°C° 0 mm 1 m/S 761 mmHg 64%
    08:00 +26°C° 0 mm 1 m/S 761 mmHg 58%
    09:00 +29°C° 0 mm 1 m/S 762 mmHg 52%
    10:00 +31°C° 0 mm 1 m/S 762 mmHg 46%
    11:00 +31°C° 0 mm 1 m/S 762 mmHg 44%
    12:00 +32°C° 0 mm 1 m/S 761 mmHg 42%
    13:00 +32°C° 0 mm 2 m/S 761 mmHg 40%
    14:00 +32°C° 0 mm 2 m/S 761 mmHg 40%
    15:00 +32°C° 0 mm 2 m/S 761 mmHg 41%
    16:00 +31°C° 0 mm 2 m/S 761 mmHg 42%
    17:00 +30°C° 0 mm 3 m/S 761 mmHg 48%
    18:00 +28°C° 0 mm 3 m/S 761 mmHg 55%
    19:00 +26°C° 0 mm 3 m/S 761 mmHg 61%
    20:00 +26°C° 0 mm 3 m/S 761 mmHg 63%
    21:00 +25°C° 0 mm 3 m/S 762 mmHg 65%
    22:00 +24°C° 0 mm 3 m/S 762 mmHg 68%
    23:00 +24°C° 0 mm 2 m/S 762 mmHg 70%
    Mehr zeigen